This is the latest recevied weather packets stored in our database for station/object KJ4RDP-13. If no packets are shown the sender has not sent any weather packets the latest 1 day(s).
| Time | Temp. | Humidity | Pressure | Rain* | Wind** | Luminosity | Snow |
|---|---|---|---|---|---|---|---|
| 1778005857 | 22.78° C | 48% | 1014.9 hPa | 0 mm | 1.79 m/s, 319° | 448 W/m² | - |
| 1778005553 | 22.22° C | 48% | 1014.9 hPa | 0 mm | 2.24 m/s, 202° | 543 W/m² | - |
| 1778005250 | 21.67° C | 48% | 1015.2 hPa | 0 mm | 3.13 m/s, 215° | 642 W/m² | - |
| 1778004946 | 22.22° C | 46% | 1014.9 hPa | 0 mm | 2.68 m/s, 332° | 544 W/m² | - |
| 1778004644 | 22.22° C | 43% | 1015.2 hPa | 0 mm | 2.24 m/s, 300° | 684 W/m² | - |
| 1778004339 | 22.22° C | 45% | 1015.2 hPa | 0 mm | 3.13 m/s, 208° | 723 W/m² | - |
| 1778004038 | 22.78° C | 43% | 1015.2 hPa | 0 mm | 3.13 m/s, 187° | 703 W/m² | - |
| 1778003737 | 22.78° C | 46% | 1015.2 hPa | 0 mm | 2.24 m/s, 290° | 684 W/m² | - |
| 1778003435 | 22.78° C | 44% | 1015.2 hPa | 0 mm | 1.79 m/s, 236° | 693 W/m² | - |
| 1778003132 | 21.67° C | 45% | 1015.7 hPa | 0 mm | 0.89 m/s, 336° | 686 W/m² | - |
| 1778002828 | 22.22° C | 48% | 1015.7 hPa | 0 mm | 2.68 m/s, 275° | 646 W/m² | - |
| 1778002525 | 22.22° C | 46% | 1016 hPa | 0 mm | 3.13 m/s, 301° | 684 W/m² | - |
| 1778002221 | 21.67° C | 45% | 1015.7 hPa | 0 mm | 0.89 m/s, 315° | 693 W/m² | - |
| 1778001920 | 22.22° C | 44% | 1015.7 hPa | 0 mm | 4.02 m/s, 254° | 638 W/m² | - |
| 1778001615 | 22.22° C | 42% | 1015.7 hPa | 0 mm | 1.34 m/s, 276° | 598 W/m² | - |
| 1778001311 | 21.67° C | 40% | 1016 hPa | 0 mm | 2.68 m/s, 206° | 601 W/m² | - |
| 1778001008 | 21.67° C | 46% | 1016 hPa | 0 mm | 2.68 m/s, 325° | 730 W/m² | - |
| 1778000705 | 21.11° C | 44% | 1015.7 hPa | 0 mm | 1.34 m/s, 260° | 784 W/m² | - |
| 1778000400 | 21.11° C | 42% | 1015.7 hPa | 0 mm | 2.24 m/s, 300° | 358 W/m² | - |
| 1778000096 | 21.67° C | 42% | 1016 hPa | 0 mm | 4.02 m/s, 282° | 688 W/m² | - |
| 1777999791 | 21.67° C | 45% | 1015.7 hPa | 0 mm | 3.13 m/s, 320° | 762 W/m² | - |
| 1777999483 | 21.67° C | 45% | 1015.7 hPa | 0 mm | 1.34 m/s, 234° | 386 W/m² | - |
| 1777999180 | 21.11° C | 47% | 1015.7 hPa | 0 mm | 1.79 m/s, 296° | 438 W/m² | - |
| 1777998879 | 21.11° C | 47% | 1015.7 hPa | 0 mm | 2.68 m/s, 304° | 658 W/m² | - |
| 1777998578 | 22.22° C | 47% | 1015.7 hPa | 0 mm | 2.24 m/s, 233° | 643 W/m² | - |
* Rain latest hour (hover to see other rain measurements)
** Current wind speed in m/s (hover to see current wind gust speed)